Private Wetterstation Sandau
Wetterdaten: Donnerstag, 27.09.2012
Datum Zeit Temp. A. Feuchte A. Luftdruck Regen Wind Richtung Richtung Taupunkt Windchill
27.09.2012 00:01 13,8 C 87 % 1004,4 hPa 0,0 l/m 0,0 km/h (0 Bft) W 270 11,7 C 13,8 C
27.09.2012 00:06 13,8 C 87 % 1004,2 hPa 0,0 l/m 1,1 km/h (1 Bft) W 270 11,7 C 13,8 C
27.09.2012 00:11 13,8 C 87 % 1004,2 hPa 0,0 l/m 0,0 km/h (0 Bft) W 270 11,7 C 13,8 C
27.09.2012 00:16 13,8 C 87 % 1004,1 hPa 0,0 l/m 0,0 km/h (0 Bft) W 270 11,7 C 13,8 C
27.09.2012 00:21 13,8 C 87 % 1004,1 hPa 0,0 l/m 1,4 km/h (1 Bft) W 270 11,7 C 13,8 C
27.09.2012 00:26 13,7 C 87 % 1004,1 hPa 0,0 l/m 0,0 km/h (0 Bft) W 270 11,6 C 13,7 C
27.09.2012 00:31 13,6 C 87 % 1004,2 hPa 0,0 l/m 0,0 km/h (0 Bft) W 270 11,5 C 13,6 C
27.09.2012 00:36 13,6 C 87 % 1004,4 hPa 0,0 l/m 0,0 km/h (0 Bft) W 270 11,5 C 13,6 C
27.09.2012 00:41 13,7 C 87 % 1004,1 hPa 0,0 l/m 0,0 km/h (0 Bft) W 270 11,6 C 13,7 C
27.09.2012 00:46 13,6 C 87 % 1004,3 hPa 0,0 l/m 0,0 km/h (0 Bft) W 270 11,5 C 13,6 C
27.09.2012 00:51 13,6 C 87 % 1004,4 hPa 0,0 l/m 0,0 km/h (0 Bft) W-NW 292 11,5 C 13,6 C
27.09.2012 00:56 13,6 C 87 % 1004,2 hPa 0,0 l/m 1,4 km/h (1 Bft) W-NW 292 11,5 C 13,6 C
27.09.2012 01:01 13,6 C 87 % 1004,2 hPa 0,0 l/m 0,0 km/h (0 Bft) W-NW 292 11,5 C 13,6 C
27.09.2012 01:06 13,6 C 87 % 1004,4 hPa 0,0 l/m 4,0 km/h (1 Bft) W 270 11,5 C 13,6 C
27.09.2012 01:11 13,6 C 87 % 1004,4 hPa 0,0 l/m 3,6 km/h (1 Bft) W 270 11,5 C 13,6 C
27.09.2012 01:16 13,6 C 87 % 1004,4 hPa 0,0 l/m 2,5 km/h (1 Bft) W 270 11,5 C 13,6 C
27.09.2012 01:21 13,6 C 87 % 1004,4 hPa 0,0 l/m 0,0 km/h (0 Bft) W-NW 292 11,5 C 13,6 C
27.09.2012 01:26 13,6 C 87 % 1004,3 hPa 0,0 l/m 1,4 km/h (1 Bft) W 270 11,5 C 13,6 C
27.09.2012 01:31 13,6 C 87 % 1004,2 hPa 0,0 l/m 4,0 km/h (1 Bft) W-NW 292 11,5 C 13,6 C
27.09.2012 01:36 13,6 C 86 % 1004,1 hPa 0,0 l/m 2,2 km/h (1 Bft) NW 315 11,3 C 13,6 C
27.09.2012 01:41 13,5 C 86 % 1004,1 hPa 0,0 l/m 0,0 km/h (0 Bft) W 270 11,2 C 13,5 C
27.09.2012 01:46 13,5 C 86 % 1003,9 hPa 0,0 l/m 1,8 km/h (1 Bft) W 270 11,2 C 13,5 C
27.09.2012 01:51 13,5 C 86 % 1003,9 hPa 0,0 l/m 3,2 km/h (1 Bft) W 270 11,2 C 13,5 C
27.09.2012 01:56 13,5 C 86 % 1003,8 hPa 0,0 l/m 2,2 km/h (1 Bft) W-NW 292 11,2 C 13,5 C
27.09.2012 02:01 13,4 C 86 % 1004,0 hPa 0,0 l/m 0,0 km/h (0 Bft) W-NW 292 11,1 C 13,4 C
27.09.2012 02:06 13,4 C 86 % 1003,8 hPa 0,0 l/m 0,0 km/h (0 Bft) W-NW 292 11,1 C 13,4 C
27.09.2012 02:11 13,4 C 86 % 1004,0 hPa 0,0 l/m 2,9 km/h (1 Bft) W-NW 292 11,1 C 13,4 C
27.09.2012 02:16 13,4 C 87 % 1004,1 hPa 0,0 l/m 4,7 km/h (1 Bft) SW 225 11,3 C 13,4 C
27.09.2012 02:21 13,4 C 87 % 1004,2 hPa 0,0 l/m 3,2 km/h (1 Bft) W-SW 247 11,3 C 13,4 C
27.09.2012 02:26 13,4 C 87 % 1004,2 hPa 0,0 l/m 0,0 km/h (0 Bft) S-SW 202 11,3 C 13,4 C
27.09.2012 02:31 13,4 C 87 % 1004,0 hPa 0,0 l/m 1,4 km/h (1 Bft) S-SO 157 11,3 C 13,4 C
27.09.2012 02:36 13,4 C 87 % 1004,1 hPa 0,0 l/m 2,2 km/h (1 Bft) S-SW 202 11,3 C 13,4 C
27.09.2012 02:41 13,4 C 87 % 1004,1 hPa 0,0 l/m 2,5 km/h (1 Bft) S-SO 157 11,3 C 13,4 C
27.09.2012 02:46 13,4 C 87 % 1004,1 hPa 0,5 l/m 3,2 km/h (1 Bft) S-SW 202 11,3 C 13,4 C
27.09.2012 02:51 13,3 C 87 % 1003,9 hPa 0,0 l/m 1,4 km/h (1 Bft) S-SW 202 11,2 C 13,3 C
27.09.2012 02:56 13,3 C 87 % 1003,9 hPa 0,0 l/m 0,0 km/h (0 Bft) W 270 11,2 C 13,3 C
27.09.2012 03:01 13,3 C 87 % 1004,0 hPa 0,0 l/m 0,0 km/h (0 Bft) W 270 11,2 C 13,3 C
27.09.2012 03:06 13,3 C 87 % 1004,0 hPa 0,0 l/m 0,0 km/h (0 Bft) W 270 11,2 C 13,3 C
27.09.2012 03:11 13,2 C 87 % 1004,1 hPa 0,0 l/m 0,0 km/h (0 Bft) W 270 11,1 C 13,2 C
27.09.2012 03:16 13,2 C 87 % 1004,3 hPa 0,0 l/m 0,0 km/h (0 Bft) W-SW 247 11,1 C 13,2 C
27.09.2012 03:21 13,1 C 87 % 1004,4 hPa 0,0 l/m 0,0 km/h (0 Bft) SW 225 11,0 C 13,1 C
27.09.2012 03:26 13,1 C 87 % 1003,7 hPa 0,0 l/m 2,9 km/h (1 Bft) N 360 11,0 C 13,1 C
27.09.2012 03:31 13,0 C 88 % 1003,4 hPa 0,0 l/m 2,9 km/h (1 Bft) N 360 11,1 C 13,0 C
27.09.2012 03:36 12,9 C 88 % 1003,4 hPa 0,0 l/m 1,1 km/h (1 Bft) N 360 11,0 C 12,9 C
27.09.2012 03:41 12,9 C 88 % 1003,4 hPa 0,0 l/m 0,0 km/h (0 Bft) N 360 11,0 C 12,9 C
27.09.2012 03:46 12,9 C 88 % 1003,5 hPa 0,0 l/m 0,0 km/h (0 Bft) N 360 11,0 C 12,9 C
27.09.2012 03:51 12,9 C 88 % 1003,8 hPa 0,0 l/m 1,4 km/h (1 Bft) W 270 11,0 C 12,9 C
27.09.2012 03:56 12,9 C 88 % 1003,9 hPa 0,0 l/m 0,0 km/h (0 Bft) W 270 11,0 C 12,9 C
27.09.2012 04:01 12,9 C 88 % 1004,1 hPa 0,0 l/m 4,0 km/h (1 Bft) W-SW 247 11,0 C 12,9 C
27.09.2012 04:06 12,9 C 89 % 1004,4 hPa 0,0 l/m 3,6 km/h (1 Bft) SW 225 11,1 C 12,9 C
27.09.2012 04:11 12,9 C 89 % 1004,3 hPa 0,0 l/m 0,0 km/h (0 Bft) SW 225 11,1 C 12,9 C
27.09.2012 04:16 12,9 C 89 % 1004,2 hPa 0,0 l/m 0,0 km/h (0 Bft) SW 225 11,1 C 12,9 C
27.09.2012 04:21 12,9 C 89 % 1004,3 hPa 0,0 l/m 0,0 km/h (0 Bft) SW 225 11,1 C 12,9 C
27.09.2012 04:26 12,9 C 89 % 1004,1 hPa 0,0 l/m 0,0 km/h (0 Bft) SW 225 11,1 C 12,9 C
27.09.2012 04:31 12,9 C 89 % 1004,0 hPa 0,0 l/m 3,2 km/h (1 Bft) S 180 11,1 C 12,9 C
27.09.2012 04:36 12,9 C 89 % 1004,1 hPa 0,5 l/m 3,2 km/h (1 Bft) S-SO 157 11,1 C 12,9 C
27.09.2012 04:41 12,9 C 89 % 1004,0 hPa 0,0 l/m 3,2 km/h (1 Bft) SO 135 11,1 C 12,9 C
27.09.2012 04:46 12,9 C 89 % 1004,1 hPa 0,0 l/m 0,0 km/h (0 Bft) S-SO 157 11,1 C 12,9 C
27.09.2012 04:51 12,8 C 89 % 1004,0 hPa 0,0 l/m 2,5 km/h (1 Bft) S-SO 157 11,0 C 12,8 C
27.09.2012 04:56 12,8 C 89 % 1004,0 hPa 0,0 l/m 0,0 km/h (0 Bft) S-SO 157 11,0 C 12,8 C
27.09.2012 05:01 12,8 C 90 % 1003,9 hPa 0,0 l/m 0,0 km/h (0 Bft) S-SO 157 11,2 C 12,8 C
27.09.2012 05:06 12,8 C 90 % 1004,0 hPa 0,0 l/m 0,0 km/h (0 Bft) S-SO 157 11,2 C 12,8 C
27.09.2012 05:11 12,8 C 90 % 1004,0 hPa 0,0 l/m 0,0 km/h (0 Bft) SW 225 11,2 C 12,8 C
27.09.2012 05:16 12,8 C 90 % 1004,0 hPa 0,0 l/m 0,0 km/h (0 Bft) SW 225 11,2 C 12,8 C
27.09.2012 05:21 12,8 C 90 % 1004,0 hPa 0,5 l/m 0,0 km/h (0 Bft) SW 225 11,2 C 12,8 C
27.09.2012 05:26 12,8 C 90 % 1004,0 hPa 0,0 l/m 4,0 km/h (1 Bft) W 270 11,2 C 12,8 C
27.09.2012 05:31 12,8 C 90 % 1004,0 hPa 0,0 l/m 1,1 km/h (1 Bft) W 270 11,2 C 12,8 C
27.09.2012 05:36 12,8 C 90 % 1004,1 hPa 0,0 l/m 7,2 km/h (2 Bft) W-SW 247 11,2 C 12,8 C
27.09.2012 05:41 12,8 C 90 % 1004,4 hPa 0,0 l/m 2,2 km/h (1 Bft) W 270 11,2 C 12,8 C
27.09.2012 05:46 12,8 C 90 % 1004,1 hPa 0,0 l/m 2,5 km/h (1 Bft) SW 225 11,2 C 12,8 C
27.09.2012 05:51 12,8 C 90 % 1004,2 hPa 0,5 l/m 3,6 km/h (1 Bft) W-SW 247 11,2 C 12,8 C
27.09.2012 05:56 12,8 C 90 % 1004,3 hPa 0,0 l/m 3,6 km/h (1 Bft) W-SW 247 11,2 C 12,8 C
27.09.2012 06:01 12,7 C 90 % 1004,5 hPa 0,0 l/m 5,0 km/h (1 Bft) W-SW 247 11,1 C 12,7 C
27.09.2012 06:06 12,7 C 90 % 1004,8 hPa 0,0 l/m 6,8 km/h (2 Bft) W-SW 247 11,1 C 12,7 C
27.09.2012 06:11 12,6 C 90 % 1005,1 hPa 0,5 l/m 8,6 km/h (2 Bft) W-SW 247 11,0 C 12,6 C
27.09.2012 06:16 12,6 C 90 % 1005,3 hPa 0,5 l/m 7,9 km/h (2 Bft) W-SW 247 11,0 C 12,6 C
27.09.2012 06:21 12,5 C 90 % 1005,4 hPa 0,0 l/m 9,4 km/h (2 Bft) W-SW 247 10,9 C 12,5 C
27.09.2012 06:26 12,5 C 90 % 1005,4 hPa 0,5 l/m 11,9 km/h (2 Bft) W 270 10,9 C 12,5 C
27.09.2012 06:31 12,4 C 90 % 1005,5 hPa 0,5 l/m 5,4 km/h (1 Bft) SW 225 10,8 C 12,4 C
27.09.2012 06:36 12,4 C 90 % 1005,3 hPa 0,0 l/m 4,3 km/h (1 Bft) W-SW 247 10,8 C 12,4 C
27.09.2012 06:41 12,4 C 90 % 1005,3 hPa 0,5 l/m 4,7 km/h (1 Bft) SW 225 10,8 C 12,4 C
27.09.2012 06:46 12,4 C 91 % 1005,4 hPa 0,5 l/m 3,2 km/h (1 Bft) W-SW 247 11,0 C 12,4 C
27.09.2012 06:51 12,4 C 91 % 1005,5 hPa 0,5 l/m 5,0 km/h (1 Bft) SW 225 11,0 C 12,4 C
27.09.2012 06:56 12,3 C 91 % 1005,4 hPa 0,0 l/m 3,6 km/h (1 Bft) S-SW 202 10,9 C 12,3 C
27.09.2012 07:01 12,4 C 91 % 1005,6 hPa 0,0 l/m 2,9 km/h (1 Bft) SW 225 11,0 C 12,4 C
27.09.2012 07:06 12,3 C 91 % 1005,5 hPa 0,5 l/m 3,2 km/h (1 Bft) SW 225 10,9 C 12,3 C
27.09.2012 07:11 12,3 C 91 % 1005,5 hPa 0,0 l/m 6,1 km/h (2 Bft) W-SW 247 10,9 C 12,3 C
27.09.2012 07:16 12,4 C 91 % 1005,6 hPa 0,0 l/m 4,7 km/h (1 Bft) SW 225 11,0 C 12,4 C
27.09.2012 07:21 12,4 C 91 % 1005,7 hPa 0,5 l/m 7,2 km/h (2 Bft) W-SW 247 11,0 C 12,4 C
27.09.2012 07:26 12,4 C 91 % 1005,8 hPa 0,0 l/m 6,5 km/h (2 Bft) W-NW 292 11,0 C 12,4 C
27.09.2012 07:31 12,3 C 91 % 1005,8 hPa 0,5 l/m 4,0 km/h (1 Bft) W-SW 247 10,9 C 12,3 C
27.09.2012 07:36 12,3 C 91 % 1005,8 hPa 0,0 l/m 8,3 km/h (2 Bft) SW 225 10,9 C 12,3 C
27.09.2012 07:41 12,3 C 91 % 1005,8 hPa 0,0 l/m 6,5 km/h (2 Bft) W 270 10,9 C 12,3 C
27.09.2012 07:46 12,3 C 91 % 1005,8 hPa 0,0 l/m 9,0 km/h (2 Bft) W 270 10,9 C 12,3 C
27.09.2012 07:51 12,3 C 91 % 1005,9 hPa 0,5 l/m 4,7 km/h (1 Bft) W-SW 247 10,9 C 12,3 C
27.09.2012 07:56 12,3 C 91 % 1006,1 hPa 0,0 l/m 8,6 km/h (2 Bft) W-SW 247 10,9 C 12,3 C
27.09.2012 08:01 12,3 C 91 % 1006,0 hPa 0,0 l/m 4,7 km/h (1 Bft) W 270 10,9 C 12,3 C
27.09.2012 08:06 12,3 C 91 % 1006,0 hPa 0,0 l/m 3,6 km/h (1 Bft) S-SW 202 10,9 C 12,3 C
27.09.2012 08:11 12,3 C 91 % 1006,1 hPa 0,5 l/m 4,0 km/h (1 Bft) SW 225 10,9 C 12,3 C
27.09.2012 08:16 12,2 C 91 % 1006,1 hPa 0,0 l/m 4,0 km/h (1 Bft) SW 225 10,8 C 12,2 C
27.09.2012 08:21 12,3 C 91 % 1006,1 hPa 0,0 l/m 4,0 km/h (1 Bft) SW 225 10,9 C 12,3 C
27.09.2012 08:26 12,2 C 91 % 1006,0 hPa 0,0 l/m 2,5 km/h (1 Bft) S-SW 202 10,8 C 12,2 C
27.09.2012 08:31 12,3 C 91 % 1006,2 hPa 0,0 l/m 4,7 km/h (1 Bft) S-SW 202 10,9 C 12,3 C
27.09.2012 08:36 12,3 C 91 % 1006,1 hPa 0,0 l/m 4,0 km/h (1 Bft) S-SW 202 10,9 C 12,3 C
27.09.2012 08:41 12,3 C 91 % 1006,2 hPa 0,0 l/m 7,2 km/h (2 Bft) S 180 10,9 C 12,3 C
27.09.2012 08:46 12,4 C 91 % 1006,0 hPa 0,0 l/m 0,0 km/h (0 Bft) S 180 11,0 C 12,4 C
27.09.2012 08:51 12,4 C 91 % 1006,1 hPa 0,0 l/m 4,7 km/h (1 Bft) S-SW 202 11,0 C 12,4 C
27.09.2012 08:56 12,4 C 91 % 1006,1 hPa 0,0 l/m 1,8 km/h (1 Bft) S-SO 157 11,0 C 12,4 C
27.09.2012 09:01 12,4 C 91 % 1006,3 hPa 0,0 l/m 4,7 km/h (1 Bft) S-SW 202 11,0 C 12,4 C
27.09.2012 09:06 12,5 C 91 % 1006,1 hPa 0,0 l/m 4,0 km/h (1 Bft) SW 225 11,1 C 12,5 C
27.09.2012 09:11 12,5 C 91 % 1006,2 hPa 0,0 l/m 4,7 km/h (1 Bft) S-SW 202 11,1 C 12,5 C
27.09.2012 09:16 12,5 C 91 % 1006,0 hPa 0,0 l/m 5,8 km/h (2 Bft) SW 225 11,1 C 12,5 C
27.09.2012 09:21 12,5 C 91 % 1006,2 hPa 0,0 l/m 0,0 km/h (0 Bft) S-SW 202 11,1 C 12,5 C
27.09.2012 09:26 12,6 C 91 % 1006,2 hPa 0,0 l/m 4,7 km/h (1 Bft) W-SW 247 11,2 C 12,6 C
27.09.2012 09:31 12,7 C 91 % 1006,2 hPa 0,0 l/m 9,7 km/h (2 Bft) W 270 11,3 C 12,7 C
27.09.2012 09:36 12,8 C 91 % 1006,3 hPa 0,0 l/m 0,0 km/h (0 Bft) SO 135 11,4 C 12,8 C
27.09.2012 09:41 12,9 C 91 % 1006,4 hPa 0,0 l/m 7,6 km/h (2 Bft) W-SW 247 11,5 C 12,9 C
27.09.2012 09:46 12,9 C 91 % 1006,4 hPa 0,0 l/m 3,6 km/h (1 Bft) SW 225 11,5 C 12,9 C
27.09.2012 09:51 12,9 C 91 % 1006,6 hPa 0,0 l/m 7,2 km/h (2 Bft) W-SW 247 11,5 C 12,9 C
27.09.2012 09:56 13,0 C 90 % 1006,3 hPa 0,0 l/m 5,4 km/h (1 Bft) W-SW 247 11,4 C 13,0 C
27.09.2012 10:01 13,1 C 90 % 1006,2 hPa 0,0 l/m 9,7 km/h (2 Bft) W-SW 247 11,5 C 13,1 C
27.09.2012 10:06 13,2 C 91 % 1006,2 hPa 0,0 l/m 4,7 km/h (1 Bft) SW 225 11,8 C 13,2 C
27.09.2012 10:11 13,4 C 90 % 1006,3 hPa 0,0 l/m 5,0 km/h (1 Bft) S-SW 202 11,8 C 13,4 C
27.09.2012 10:16 13,5 C 90 % 1006,2 hPa 0,0 l/m 8,6 km/h (2 Bft) SW 225 11,9 C 13,5 C
27.09.2012 10:21 13,8 C 90 % 1006,2 hPa 0,0 l/m 4,3 km/h (1 Bft) S-SW 202 12,2 C 13,8 C
27.09.2012 10:26 13,8 C 89 % 1006,3 hPa 0,0 l/m 4,7 km/h (1 Bft) SW 225 12,0 C 13,8 C
27.09.2012 10:31 13,9 C 89 % 1006,4 hPa 0,0 l/m 11,5 km/h (2 Bft) SW 225 12,1 C 13,9 C
27.09.2012 10:36 13,9 C 88 % 1006,3 hPa 0,0 l/m 6,5 km/h (2 Bft) S-SW 202 11,9 C 13,9 C
27.09.2012 10:41 14,1 C 88 % 1006,3 hPa 0,0 l/m 7,2 km/h (2 Bft) W-SW 247 12,1 C 14,1 C
27.09.2012 10:46 14,2 C 87 % 1006,3 hPa 0,0 l/m 5,8 km/h (2 Bft) S 180 12,1 C 14,2 C
27.09.2012 10:51 14,4 C 87 % 1006,3 hPa 0,0 l/m 6,5 km/h (2 Bft) S 180 12,3 C 14,4 C
27.09.2012 10:56 14,5 C 86 % 1006,3 hPa 0,0 l/m 11,2 km/h (2 Bft) S-SW 202 12,2 C 14,5 C
27.09.2012 11:01 14,7 C 85 % 1006,2 hPa 0,0 l/m 7,6 km/h (2 Bft) W-SW 247 12,2 C 14,7 C
27.09.2012 11:06 14,9 C 84 % 1006,2 hPa 0,0 l/m 14,0 km/h (3 Bft) S-SO 157 12,2 C 14,9 C
27.09.2012 11:11 14,9 C 83 % 1006,2 hPa 0,0 l/m 9,4 km/h (2 Bft) SW 225 12,0 C 14,9 C
27.09.2012 11:16 14,9 C 83 % 1006,2 hPa 0,0 l/m 12,2 km/h (2 Bft) W-SW 247 12,0 C 14,9 C
27.09.2012 11:21 15,0 C 82 % 1006,1 hPa 0,0 l/m 12,6 km/h (3 Bft) W-SW 247 12,0 C 15,0 C
27.09.2012 11:26 15,2 C 81 % 1006,2 hPa 0,0 l/m 6,8 km/h (2 Bft) S-SW 202 12,0 C 15,2 C
27.09.2012 11:31 15,2 C 81 % 1006,1 hPa 0,0 l/m 18,0 km/h (3 Bft) W 270 12,0 C 15,2 C
27.09.2012 11:36 15,2 C 80 % 1006,1 hPa 0,0 l/m 25,9 km/h (4 Bft) W-SW 247 11,8 C 15,2 C
27.09.2012 11:41 15,3 C 80 % 1006,0 hPa 0,0 l/m 11,5 km/h (2 Bft) W-SW 247 11,9 C 15,3 C
27.09.2012 11:46 15,4 C 80 % 1005,9 hPa 0,0 l/m 5,8 km/h (2 Bft) W-SW 247 12,0 C 15,4 C
27.09.2012 11:51 15,6 C 79 % 1005,9 hPa 0,0 l/m 20,2 km/h (4 Bft) S 180 12,0 C 15,6 C
27.09.2012 11:56 15,8 C 77 % 1005,9 hPa 0,0 l/m 8,3 km/h (2 Bft) W-SW 247 11,8 C 15,8 C
27.09.2012 12:01 16,1 C 77 % 1005,9 hPa 0,0 l/m 15,8 km/h (3 Bft) SW 225 12,1 C 16,1 C
27.09.2012 12:06 16,1 C 76 % 1006,0 hPa 0,0 l/m 10,1 km/h (2 Bft) S 180 11,9 C 16,1 C
27.09.2012 12:11 16,0 C 76 % 1006,0 hPa 0,0 l/m 6,5 km/h (2 Bft) S-SO 157 11,8 C 16,0 C
27.09.2012 12:16 15,9 C 76 % 1005,9 hPa 0,0 l/m 18,0 km/h (3 Bft) W 270 11,7 C 15,9 C
27.09.2012 12:21 15,9 C 76 % 1006,0 hPa 0,0 l/m 5,8 km/h (2 Bft) S-SO 157 11,7 C 15,9 C
27.09.2012 12:26 15,9 C 76 % 1006,1 hPa 0,0 l/m 26,6 km/h (4 Bft) SW 225 11,7 C 15,9 C
27.09.2012 12:31 15,8 C 76 % 1006,2 hPa 0,0 l/m 14,0 km/h (3 Bft) SW 225 11,6 C 15,8 C
27.09.2012 12:36 15,7 C 76 % 1006,2 hPa 0,0 l/m 9,4 km/h (2 Bft) W-SW 247 11,5 C 15,7 C
27.09.2012 12:41 15,6 C 76 % 1006,3 hPa 0,0 l/m 4,0 km/h (1 Bft) SW 225 11,4 C 15,6 C
27.09.2012 12:46 15,5 C 76 % 1006,2 hPa 0,0 l/m 8,6 km/h (2 Bft) W 270 11,3 C 15,5 C
27.09.2012 12:51 15,6 C 76 % 1006,2 hPa 0,0 l/m 3,2 km/h (1 Bft) S-SW 202 11,4 C 15,6 C
27.09.2012 12:56 15,8 C 77 % 1006,3 hPa 0,0 l/m 6,5 km/h (2 Bft) S-SW 202 11,8 C 15,8 C
27.09.2012 13:01 15,9 C 77 % 1006,3 hPa 0,0 l/m 8,6 km/h (2 Bft) W-SW 247 11,9 C 15,9 C
27.09.2012 13:06 16,1 C 76 % 1006,3 hPa 0,0 l/m 11,2 km/h (2 Bft) S 180 11,9 C 16,1 C
27.09.2012 13:11 16,2 C 76 % 1006,3 hPa 0,0 l/m 15,5 km/h (3 Bft) SW 225 12,0 C 16,2 C
27.09.2012 13:16 16,1 C 75 % 1006,3 hPa 0,0 l/m 9,7 km/h (2 Bft) SW 225 11,7 C 16,1 C
27.09.2012 13:21 16,1 C 75 % 1006,2 hPa 0,0 l/m 8,6 km/h (2 Bft) SW 225 11,7 C 16,1 C
27.09.2012 13:26 16,0 C 75 % 1006,3 hPa 0,0 l/m 7,9 km/h (2 Bft) S-SW 202 11,6 C 16,0 C
27.09.2012 13:31 16,1 C 75 % 1006,3 hPa 0,0 l/m 6,8 km/h (2 Bft) W-SW 247 11,7 C 16,1 C
27.09.2012 13:36 16,1 C 75 % 1006,2 hPa 0,0 l/m 4,7 km/h (1 Bft) S-SO 157 11,7 C 16,1 C
27.09.2012 13:41 16,1 C 75 % 1006,2 hPa 0,0 l/m 15,8 km/h (3 Bft) S-SW 202 11,7 C 16,1 C
27.09.2012 13:46 16,1 C 75 % 1006,1 hPa 0,0 l/m 7,2 km/h (2 Bft) S 180 11,7 C 16,1 C
27.09.2012 13:51 15,9 C 75 % 1006,1 hPa 0,0 l/m 3,6 km/h (1 Bft) S-SW 202 11,5 C 15,9 C
27.09.2012 13:56 15,9 C 75 % 1006,3 hPa 0,0 l/m 5,4 km/h (1 Bft) W-SW 247 11,5 C 15,9 C
27.09.2012 14:01 15,9 C 76 % 1006,2 hPa 0,0 l/m 9,4 km/h (2 Bft) W-SW 247 11,7 C 15,9 C
27.09.2012 14:06 15,9 C 76 % 1006,3 hPa 0,0 l/m 8,3 km/h (2 Bft) S 180 11,7 C 15,9 C
27.09.2012 14:11 15,9 C 75 % 1006,3 hPa 0,0 l/m 11,2 km/h (2 Bft) SW 225 11,5 C 15,9 C
27.09.2012 14:16 15,8 C 74 % 1006,2 hPa 0,0 l/m 10,8 km/h (2 Bft) S-SW 202 11,2 C 15,8 C
27.09.2012 14:21 15,8 C 74 % 1006,2 hPa 0,0 l/m 9,7 km/h (2 Bft) SW 225 11,2 C 15,8 C
27.09.2012 14:26 15,6 C 74 % 1006,2 hPa 0,0 l/m 14,8 km/h (3 Bft) SW 225 11,0 C 15,6 C
27.09.2012 14:31 15,6 C 73 % 1006,1 hPa 0,0 l/m 14,4 km/h (3 Bft) W 270 10,8 C 15,6 C
27.09.2012 14:36 15,6 C 74 % 1006,4 hPa 0,0 l/m 18,0 km/h (3 Bft) SW 225 11,0 C 15,6 C
27.09.2012 14:41 15,6 C 74 % 1006,4 hPa 0,0 l/m 5,8 km/h (2 Bft) W-SW 247 11,0 C 15,6 C
27.09.2012 14:46 15,8 C 74 % 1006,3 hPa 0,0 l/m 13,0 km/h (3 Bft) W-SW 247 11,2 C 15,8 C
27.09.2012 14:51 15,9 C 73 % 1006,3 hPa 0,0 l/m 21,6 km/h (4 Bft) SW 225 11,1 C 15,9 C
27.09.2012 14:56 16,1 C 72 % 1006,1 hPa 0,0 l/m 11,9 km/h (2 Bft) W 270 11,0 C 16,1 C
27.09.2012 15:01 16,6 C 72 % 1006,3 hPa 0,0 l/m 20,2 km/h (4 Bft) SW 225 11,5 C 16,6 C
27.09.2012 15:06 16,9 C 71 % 1006,3 hPa 0,0 l/m 13,7 km/h (3 Bft) W-SW 247 11,6 C 16,9 C
27.09.2012 15:11 16,9 C 71 % 1006,1 hPa 0,0 l/m 6,5 km/h (2 Bft) S-SW 202 11,6 C 16,9 C
27.09.2012 15:16 16,8 C 70 % 1006,3 hPa 0,0 l/m 11,2 km/h (2 Bft) S-SW 202 11,3 C 16,8 C
27.09.2012 15:21 16,5 C 71 % 1006,2 hPa 0,0 l/m 5,8 km/h (2 Bft) S-SW 202 11,2 C 16,5 C
27.09.2012 15:26 16,3 C 71 % 1006,0 hPa 0,0 l/m 17,6 km/h (3 Bft) S-SW 202 11,0 C 16,3 C
27.09.2012 15:31 16,2 C 71 % 1006,2 hPa 0,0 l/m 16,9 km/h (3 Bft) W 270 10,9 C 16,2 C
27.09.2012 15:36 16,2 C 72 % 1006,1 hPa 0,0 l/m 8,6 km/h (2 Bft) SW 225 11,1 C 16,2 C
27.09.2012 15:41 16,3 C 72 % 1006,1 hPa 0,0 l/m 10,1 km/h (2 Bft) S 180 11,2 C 16,3 C
27.09.2012 15:46 16,4 C 72 % 1006,0 hPa 0,0 l/m 5,8 km/h (2 Bft) W-SW 247 11,3 C 16,4 C
27.09.2012 15:51 16,4 C 71 % 1006,3 hPa 0,0 l/m 10,4 km/h (2 Bft) S-SW 202 11,1 C 16,4 C
27.09.2012 15:56 16,4 C 71 % 1006,3 hPa 0,0 l/m 11,5 km/h (2 Bft) S-SW 202 11,1 C 16,4 C
27.09.2012 16:01 16,6 C 71 % 1006,2 hPa 0,0 l/m 12,6 km/h (3 Bft) S-SW 202 11,3 C 16,6 C
27.09.2012 16:06 16,6 C 70 % 1006,1 hPa 0,0 l/m 5,8 km/h (2 Bft) W-SW 247 11,1 C 16,6 C
27.09.2012 16:11 16,5 C 70 % 1006,0 hPa 0,0 l/m 7,2 km/h (2 Bft) W-SW 247 11,0 C 16,5 C
27.09.2012 16:16 16,4 C 70 % 1006,0 hPa 0,0 l/m 19,1 km/h (3 Bft) W 270 10,9 C 16,4 C
27.09.2012 16:21 16,3 C 71 % 1006,0 hPa 0,0 l/m 14,4 km/h (3 Bft) S-SW 202 11,0 C 16,3 C
27.09.2012 16:26 16,2 C 71 % 1006,1 hPa 0,0 l/m 14,4 km/h (3 Bft) W-SW 247 10,9 C 16,2 C
27.09.2012 16:31 16,2 C 71 % 1006,1 hPa 0,0 l/m 5,8 km/h (2 Bft) W 270 10,9 C 16,2 C
27.09.2012 16:36 16,3 C 71 % 1006,0 hPa 0,0 l/m 10,4 km/h (2 Bft) W-SW 247 11,0 C 16,3 C
27.09.2012 16:41 16,6 C 71 % 1006,0 hPa 0,0 l/m 8,3 km/h (2 Bft) SW 225 11,3 C 16,6 C
27.09.2012 16:46 16,6 C 71 % 1005,9 hPa 0,0 l/m 9,4 km/h (2 Bft) S-SO 157 11,3 C 16,6 C
27.09.2012 16:51 16,8 C 71 % 1005,9 hPa 0,0 l/m 6,8 km/h (2 Bft) W 270 11,5 C 16,8 C
27.09.2012 16:56 16,9 C 70 % 1005,9 hPa 0,0 l/m 2,9 km/h (1 Bft) SW 225 11,4 C 16,9 C
27.09.2012 17:01 17,0 C 69 % 1005,9 hPa 0,0 l/m 5,4 km/h (1 Bft) W 270 11,3 C 17,0 C
27.09.2012 17:06 17,1 C 69 % 1005,8 hPa 0,0 l/m 13,7 km/h (3 Bft) W-SW 247 11,4 C 17,1 C
27.09.2012 17:11 17,1 C 68 % 1005,9 hPa 0,0 l/m 8,3 km/h (2 Bft) SW 225 11,1 C 17,1 C
27.09.2012 17:16 16,8 C 68 % 1005,9 hPa 0,0 l/m 14,8 km/h (3 Bft) W-SW 247 10,9 C 16,8 C
27.09.2012 17:21 16,5 C 69 % 1005,9 hPa 0,0 l/m 8,3 km/h (2 Bft) SW 225 10,8 C 16,5 C
27.09.2012 17:26 16,3 C 69 % 1005,8 hPa 0,0 l/m 15,5 km/h (3 Bft) S-SO 157 10,6 C 16,3 C
27.09.2012 17:31 16,1 C 70 % 1005,9 hPa 0,0 l/m 10,1 km/h (2 Bft) S-SW 202 10,6 C 16,1 C
27.09.2012 17:36 16,1 C 70 % 1005,8 hPa 0,0 l/m 6,1 km/h (2 Bft) S-SW 202 10,6 C 16,1 C
27.09.2012 17:41 16,2 C 70 % 1006,0 hPa 0,0 l/m 19,4 km/h (3 Bft) W-SW 247 10,7 C 16,2 C
27.09.2012 17:46 16,3 C 69 % 1006,2 hPa 0,0 l/m 17,3 km/h (3 Bft) SW 225 10,6 C 16,3 C
27.09.2012 17:51 16,1 C 68 % 1006,1 hPa 0,0 l/m 15,8 km/h (3 Bft) S-SW 202 10,2 C 16,1 C
27.09.2012 17:56 15,9 C 69 % 1006,1 hPa 0,0 l/m 17,3 km/h (3 Bft) W 270 10,2 C 15,9 C
27.09.2012 18:01 15,8 C 69 % 1006,0 hPa 0,0 l/m 9,7 km/h (2 Bft) SW 225 10,1 C 15,8 C
27.09.2012 18:06 15,6 C 70 % 1006,1 hPa 0,0 l/m 9,4 km/h (2 Bft) W-SW 247 10,1 C 15,6 C
27.09.2012 18:11 15,4 C 70 % 1006,0 hPa 0,0 l/m 0,0 km/h (0 Bft) W 270 10,0 C 15,4 C
27.09.2012 18:16 15,3 C 70 % 1006,1 hPa 0,0 l/m 7,6 km/h (2 Bft) SW 225 9,9 C 15,3 C
27.09.2012 18:21 15,3 C 71 % 1006,2 hPa 0,0 l/m 5,8 km/h (2 Bft) SO 135 10,1 C 15,3 C
27.09.2012 18:26 15,2 C 71 % 1006,3 hPa 0,0 l/m 15,5 km/h (3 Bft) S 180 10,0 C 15,2 C
27.09.2012 18:31 15,1 C 71 % 1006,2 hPa 0,0 l/m 3,6 km/h (1 Bft) SW 225 9,9 C 15,1 C
27.09.2012 18:36 14,9 C 71 % 1006,5 hPa 0,0 l/m 20,5 km/h (4 Bft) SW 225 9,7 C 14,9 C
27.09.2012 18:41 14,9 C 71 % 1006,5 hPa 0,0 l/m 15,1 km/h (3 Bft) W 270 9,7 C 14,9 C
27.09.2012 18:46 14,9 C 71 % 1006,4 hPa 0,0 l/m 13,0 km/h (3 Bft) W-SW 247 9,7 C 14,9 C
27.09.2012 18:51 14,8 C 71 % 1006,5 hPa 0,0 l/m 9,4 km/h (2 Bft) S 180 9,6 C 14,8 C
27.09.2012 18:56 14,6 C 71 % 1006,6 hPa 0,0 l/m 11,5 km/h (2 Bft) SW 225 9,4 C 14,6 C
27.09.2012 19:01 14,6 C 71 % 1006,6 hPa 0,0 l/m 14,0 km/h (3 Bft) W-SW 247 9,4 C 14,6 C
27.09.2012 19:06 14,5 C 71 % 1006,6 hPa 0,0 l/m 16,9 km/h (3 Bft) S-SW 202 9,3 C 14,5 C
27.09.2012 19:11 14,5 C 71 % 1006,7 hPa 0,0 l/m 7,9 km/h (2 Bft) S-SW 202 9,3 C 14,5 C
27.09.2012 19:16 14,5 C 71 % 1006,7 hPa 0,0 l/m 15,5 km/h (3 Bft) W-SW 247 9,3 C 14,5 C
27.09.2012 19:21 14,4 C 72 % 1006,8 hPa 0,0 l/m 11,2 km/h (2 Bft) W-SW 247 9,4 C 14,4 C
27.09.2012 19:26 14,4 C 72 % 1006,9 hPa 0,0 l/m 9,4 km/h (2 Bft) S 180 9,4 C 14,4 C
27.09.2012 19:31 14,3 C 72 % 1006,9 hPa 0,0 l/m 10,1 km/h (2 Bft) SW 225 9,3 C 14,3 C
27.09.2012 19:36 14,3 C 73 % 1007,1 hPa 0,0 l/m 9,0 km/h (2 Bft) SW 225 9,5 C 14,3 C
27.09.2012 19:41 14,3 C 73 % 1007,0 hPa 0,0 l/m 8,3 km/h (2 Bft) W-SW 247 9,5 C 14,3 C
27.09.2012 19:46 14,2 C 73 % 1007,1 hPa 0,0 l/m 7,6 km/h (2 Bft) S-SW 202 9,4 C 14,2 C
27.09.2012 19:51 14,2 C 73 % 1007,1 hPa 0,0 l/m 11,9 km/h (2 Bft) SW 225 9,4 C 14,2 C
27.09.2012 19:56 14,2 C 74 % 1007,1 hPa 0,0 l/m 8,6 km/h (2 Bft) W-SW 247 9,6 C 14,2 C
27.09.2012 20:01 14,2 C 74 % 1007,1 hPa 0,0 l/m 7,9 km/h (2 Bft) S-SW 202 9,6 C 14,2 C
27.09.2012 20:06 14,2 C 74 % 1007,1 hPa 0,0 l/m 10,1 km/h (2 Bft) S-SW 202 9,6 C 14,2 C
27.09.2012 20:11 14,1 C 74 % 1007,1 hPa 0,0 l/m 6,1 km/h (2 Bft) W-SW 247 9,5 C 14,1 C
27.09.2012 20:16 14,1 C 74 % 1007,2 hPa 0,0 l/m 8,3 km/h (2 Bft) S-SO 157 9,5 C 14,1 C
27.09.2012 20:21 14,1 C 74 % 1007,3 hPa 0,0 l/m 10,4 km/h (2 Bft) W-SW 247 9,5 C 14,1 C
27.09.2012 20:26 14,1 C 74 % 1007,3 hPa 0,0 l/m 10,8 km/h (2 Bft) W-SW 247 9,5 C 14,1 C
27.09.2012 20:31 14,0 C 74 % 1007,4 hPa 0,0 l/m 11,9 km/h (2 Bft) W-SW 247 9,4 C 14,0 C
27.09.2012 20:36 13,9 C 74 % 1007,4 hPa 0,0 l/m 6,1 km/h (2 Bft) S-SW 202 9,3 C 13,9 C
27.09.2012 20:41 13,8 C 75 % 1007,4 hPa 0,0 l/m 4,0 km/h (1 Bft) S-SW 202 9,4 C 13,8 C
27.09.2012 20:46 13,8 C 75 % 1007,2 hPa 0,0 l/m 3,6 km/h (1 Bft) SW 225 9,4 C 13,8 C
27.09.2012 20:51 13,7 C 75 % 1007,2 hPa 0,0 l/m 5,0 km/h (1 Bft) W-SW 247 9,3 C 13,7 C
27.09.2012 20:56 13,6 C 76 % 1007,3 hPa 0,0 l/m 4,7 km/h (1 Bft) S-SW 202 9,4 C 13,6 C
27.09.2012 21:01 13,6 C 76 % 1007,3 hPa 0,0 l/m 8,6 km/h (2 Bft) W-SW 247 9,4 C 13,6 C
27.09.2012 21:06 13,5 C 76 % 1007,4 hPa 0,0 l/m 6,5 km/h (2 Bft) SW 225 9,4 C 13,5 C
27.09.2012 21:11 13,5 C 76 % 1007,3 hPa 0,0 l/m 3,6 km/h (1 Bft) S-SW 202 9,4 C 13,5 C
27.09.2012 21:16 13,5 C 76 % 1007,3 hPa 0,0 l/m 6,1 km/h (2 Bft) SW 225 9,4 C 13,5 C
27.09.2012 21:21 13,5 C 77 % 1007,5 hPa 0,0 l/m 7,6 km/h (2 Bft) SW 225 9,5 C 13,5 C
27.09.2012 21:26 13,4 C 77 % 1007,4 hPa 0,0 l/m 7,2 km/h (2 Bft) S-SW 202 9,5 C 13,4 C
27.09.2012 21:31 13,4 C 77 % 1007,4 hPa 0,0 l/m 7,2 km/h (2 Bft) SW 225 9,5 C 13,4 C
27.09.2012 21:36 13,4 C 77 % 1007,5 hPa 0,0 l/m 14,0 km/h (3 Bft) W-SW 247 9,5 C 13,4 C
27.09.2012 21:41 13,4 C 78 % 1007,6 hPa 0,0 l/m 6,1 km/h (2 Bft) W-SW 247 9,6 C 13,4 C
27.09.2012 21:46 13,4 C 78 % 1007,6 hPa 0,0 l/m 10,1 km/h (2 Bft) S-SW 202 9,6 C 13,4 C
27.09.2012 21:51 13,4 C 78 % 1007,4 hPa 0,0 l/m 7,6 km/h (2 Bft) S-SW 202 9,6 C 13,4 C
27.09.2012 21:56 13,4 C 78 % 1007,6 hPa 0,0 l/m 6,8 km/h (2 Bft) SW 225 9,6 C 13,4 C
27.09.2012 22:01 13,5 C 78 % 1007,7 hPa 0,0 l/m 10,8 km/h (2 Bft) W-SW 247 9,7 C 13,5 C
27.09.2012 22:06 13,5 C 78 % 1007,7 hPa 0,0 l/m 12,2 km/h (2 Bft) SW 225 9,7 C 13,5 C
27.09.2012 22:11 13,5 C 78 % 1007,8 hPa 0,0 l/m 8,3 km/h (2 Bft) S 180 9,7 C 13,5 C
27.09.2012 22:16 13,5 C 78 % 1008,0 hPa 0,0 l/m 7,6 km/h (2 Bft) W-SW 247 9,7 C 13,5 C
27.09.2012 22:21 13,5 C 79 % 1008,1 hPa 0,0 l/m 11,5 km/h (2 Bft) SW 225 9,9 C 13,5 C
27.09.2012 22:26 13,4 C 80 % 1008,1 hPa 0,0 l/m 13,3 km/h (3 Bft) W-SW 247 10,0 C 13,4 C
27.09.2012 22:31 13,3 C 81 % 1008,0 hPa 0,0 l/m 7,9 km/h (2 Bft) W-SW 247 10,1 C 13,3 C
27.09.2012 22:36 13,2 C 81 % 1008,0 hPa 0,0 l/m 11,5 km/h (2 Bft) W-SW 247 10,0 C 13,2 C
27.09.2012 22:41 13,1 C 81 % 1008,0 hPa 0,0 l/m 11,9 km/h (2 Bft) W 270 9,9 C 13,1 C
27.09.2012 22:46 13,0 C 82 % 1008,0 hPa 0,0 l/m 22,7 km/h (4 Bft) W 270 10,0 C 13,0 C
27.09.2012 22:51 12,9 C 82 % 1008,0 hPa 0,0 l/m 19,1 km/h (3 Bft) W 270 9,9 C 12,9 C
27.09.2012 22:56 12,9 C 82 % 1008,1 hPa 0,0 l/m 14,4 km/h (3 Bft) W-SW 247 9,9 C 12,9 C
27.09.2012 23:01 12,8 C 83 % 1008,1 hPa 0,0 l/m 4,3 km/h (1 Bft) SW 225 10,0 C 12,8 C
27.09.2012 23:06 12,8 C 83 % 1008,1 hPa 0,0 l/m 9,0 km/h (2 Bft) W-SW 247 10,0 C 12,8 C
27.09.2012 23:11 12,6 C 83 % 1008,3 hPa 0,0 l/m 7,9 km/h (2 Bft) W 270 9,8 C 12,6 C
27.09.2012 23:16 12,5 C 83 % 1008,3 hPa 0,0 l/m 10,1 km/h (2 Bft) W-SW 247 9,7 C 12,5 C
27.09.2012 23:21 12,4 C 83 % 1008,3 hPa 0,0 l/m 11,2 km/h (2 Bft) W 270 9,6 C 12,4 C
27.09.2012 23:26 12,3 C 83 % 1008,1 hPa 0,0 l/m 3,6 km/h (1 Bft) W-SW 247 9,5 C 12,3 C
27.09.2012 23:31 12,3 C 83 % 1008,3 hPa 0,0 l/m 5,0 km/h (1 Bft) W-SW 247 9,5 C 12,3 C
27.09.2012 23:36 12,2 C 83 % 1008,3 hPa 0,0 l/m 6,1 km/h (2 Bft) W 270 9,4 C 12,2 C
27.09.2012 23:41 12,1 C 83 % 1008,5 hPa 0,0 l/m 9,0 km/h (2 Bft) W-SW 247 9,3 C 12,1 C
27.09.2012 23:46 12,1 C 84 % 1008,4 hPa 0,0 l/m 14,8 km/h (3 Bft) W-SW 247 9,5 C 12,1 C
27.09.2012 23:51 12,1 C 84 % 1008,5 hPa 0,0 l/m 7,9 km/h (2 Bft) W-SW 247 9,5 C 12,1 C
27.09.2012 23:56 12,1 C 84 % 1008,6 hPa 0,0 l/m 11,9 km/h (2 Bft) W-SW 247 9,5 C 12,1 C
_ Min-Zeit 23:41 17:11 03:31 - 00:01 - - 23:41 23:41
Minimum _ 12,1 C 68 % 1003,4 hPa - 0,0 km/h (0 Bft) - - 9,3 C 12,1 C
_ Max-Zeit 17:06 06:46 23:56 02:46 12:26 - - 10:51 17:06
Maximum _ 17,1 C 91 % 1008,6 hPa 0,5 l/m 26,6 km/h
SW (4 Bft)
- - 12,3 C 17,1 C
Durchschnitt _ 14,1 C 81 % 1005,9 hPa #8,3 l/m 7,2 km/h (2 Bft) W-SW - 10,9 C 14,1 C
(c) by David Heller